Voltar ao catálogo

THORAD AGENA D DEB

AtivoLEO
NORAD 42541·DEBRIS·🇺🇸 United States

Lançado Apr 8, 1970 de Vandenberg Space Force Base

Loading…

Próximas Passagens (próximas 24 horas)

TLE

AtualizadoSource: Space-Track

Época: Sep 14, 2026, 06:01 UTC

1 42541U 70025SX  26257.25102396  .00000326  00000-0  40183-3 0  9990
2 42541 100.0540 165.0356 0033842 358.0680 151.8608 13.73473511641133

Acompanhe THORAD AGENA D DEB em tempo real com AllMySat

Download on the App Store